Tracking 30995 objects as of 5-Jul-2025
HD Live streaming from Space Station
objects crossing your sky now

FENGYUN 1C DEB

Track FENGYUN 1C DEB now!
10-day predictions


NORAD ID: 30625
Int'l Code: 1999-025ANG
Perigee: 734.9 km
Apogee: 818.0 km
Inclination: 98.9 °
Period: 100.2 minutes
Semi major axis: 7147 km
RCS: 0.017 m2 (small)
Launch date: May 10, 1999
Source: People's Republic of China (PRC)
Launch site: Taiyaun Space Center, China (TSC)

Note: This is SATELLITE DEBRIS
Your satellite tracking list
FENGYUN 1C DEB
Track 1 satellite(s)




NASA's NSSDC Master Catalog

Two Line Element Set (TLE):
1 30625U 99025ANG 25186.33295936  .00008924  00000-0  29803-2 0  9990
2 30625  98.9253 135.9025 0058127  52.8497 307.7977 14.36733552943833
Source of the keplerian elements: AFSPC